Flag for Chile Weather past 2 weeks in Concepción, Chile

Now
52 °F

Clear.


Feels Like: 49 °F
Forecast: 40 / 54 °F
Wind: 7 mph from Southwest

Location: Concepcion Airport

Current Time: Jul 1, 2015 at 4:55:10 PM

Latest Report: Jul 1, 2015 at 4:00 PM


Visibility: 5 mi

Pressure: 30.07 "Hg

Humidity: 82%

Dew point: 46 °F

Location of ConcepciónLocation

Historic Weather in Concepción — Graph

°F

Concepción temperature yesterday

Maximum temperature yesterday: 59 °F (at 4:00 PM)
Minimum temperature yesterday: 37 °F (at 9:00 AM)
Average temperature yesterday: 48 °F

Past Weeks' High & Low Weather Summary

 TemperatureHumidityPressure
High63 °F (Jun 26, 4:00 PM)100% (Jun 16, 10:00 PM)30.30 "Hg (Jun 16, 10:00 PM)
Low37 °F (Jun 18, 8:00 AM)39% (Jun 22, 3:00 PM)29.86 "Hg (Jun 23, 8:00 AM)
Average50 °F81%30.09 "Hg
* Reported Jun 16 3:00 PM — Jul 1 3:00 PM, Concepción, Weather by CustomWeather, © 2015

Note: Actual official high and low records may vary slightly from our data, if they occured in-between our weather recording intervals... More about our weather records

Advertising

Concepción weather history for previous 24 hours

 ConditionsComfort  
Time TempWeatherWind HumidityBarometerVisibility
3:00 PM
Wed, Jul 1
54 °FPassing clouds.5 mph77%30.07 "HgN/A
2:00 PM50 °FClear.6 mph82%30.09 "Hg5 mi
1:00 PM50 °FPassing clouds.7 mph82%30.09 "HgN/A
12:00 PM48 °FSunny.3 mph87%30.12 "Hg10 mi
11:00 AM46 °FBroken clouds.3 mph87%30.09 "HgN/A
10:00 AM45 °FPartly sunny.7 mph93%30.09 "HgN/A
9:00 AM45 °FPartly sunny.5 mph93%30.09 "HgN/A
8:00 AM45 °FPassing clouds.8 mph93%30.07 "HgN/A
7:00 AM45 °FPassing clouds.5 mph93%30.07 "HgN/A
6:00 AM45 °FClear.6 mph93%30.07 "Hg10 mi
5:00 AM45 °FClear.3 mph87%30.07 "Hg10 mi
4:00 AM46 °FClear.No wind87%30.07 "Hg10 mi
3:00 AM46 °FClear.6 mph87%30.07 "Hg10 mi
2:00 AM46 °FClear.7 mph87%30.09 "Hg10 mi
1:00 AM46 °FClear.5 mph87%30.09 "Hg10 mi
12:00 AM48 °FClear.5 mph87%30.09 "Hg10 mi
11:00 PM
Tue, Jun 30
46 °FClear.No wind100%30.09 "Hg4 mi
10:00 PM48 °FClear.5 mph94%30.09 "Hg4 mi
9:00 PM50 °FClear.3 mph88%30.09 "Hg5 mi
8:00 PM50 °FClear.6 mph88%30.09 "Hg4 mi
7:00 PM54 °FClear.7 mph82%30.09 "Hg10 mi
6:00 PM59 °FClear.8 mph68%30.07 "Hg10 mi
5:00 PM59 °FSunny.10 mph68%30.07 "Hg10 mi
4:00 PM59 °FSunny.8 mph63%30.09 "Hg10 mi
Weather by CustomWeather, © 2015

See weather overviewHow to use our weather pages